sat.trackr.live / text

‹ back to catalog

STARLINK-36491

NORAD 67310 · 2026-002F

PAYLOAD ACTIVE UNKNOWN

§ Identity

Operator
Country
US
Launch date
2026-01-04
Launch site
AFETR
Launch vehicle
Mass (kg)
RCS (m²)

Purposes: comms

External: N2YO · Heavens-Above · Gunter

§ Orbital elements

Epoch: 2026-09-19T11:28:49.217952Z

Period
94.27 min
Inclination
43.0037°
Eccentricity
0.0003797
Mean motion
15.27596647 rev/d
Perigee alt
480.4 km
Apogee alt
485.6 km
Semi-major
6,861.1 km
B*
5.5145e-4
RAAN
311.0946°
Arg perigee
282.9980°
Mean anomaly
77.0448°
Rev number
4,071

§ Raw data

STARLINK-364911 67310U 26002F   26262.47834743  .00014953  00000+0  55145-3 0  99992 67310  43.0037 311.0946 0003797 282.9980  77.0448 15.27596647 40718

JSON: /api/v1/satellites/67310 · /tle

For live sub-satellite position, see the globe view (requires WebGL).

§ Visibility from observer

Set your observer location to see the next 7 days of passes ≥ 10°. The values pass through the URL so the page stays shareable.

No JS? Fill the form by hand. The geolocation button needs JavaScript.